Location: Tr�vern
(48.0333°N, 4.6000°W)
Time: 18:09:42
(UTC+00:00)

SL-16 R/B - Pass Details

Date: 14 July 2020
Orbit: 985 x 1007 km, 99.5° (Epoch: 13 August)

Event Time Altitude Azimuth Distance (km) Brightness Sun altitude
Exits shadow 03:42:07 - 235° (SW) 2,907 4.3 -7.5°
Reaches altitude 10° 03:42:46 10° 240° (WSW) 2,773 4.3 -7.4°
Maximum altitude 03:46:09 15° 274° (W) 2,432 4.2 -7.0°
Drops below altitude 10° 03:49:34 10° 307° (NW) 2,789 4.8 -6.6°
Sets 03:53:23 0° 330° (NNW) 3,747 5.7 -6.1°
